Location: Wayah Bald
(35.1806°N, 83.5603°W)
Time: 22:58:40
(UTC-04:00)

Daily predictions for brighter satellites

Satellite Brightness Start Highest point End
(mag) Time Altitude Azimuth Time Altitude Azimuth Time Altitude Azimuth
Cosmos 2098 Rocket 4.2 21:10:14 10° NNW 21:13:50 43° W 21:18:20 10° SSW
Cosmos 2285 Rocket 4.1 21:08:07 10° NNW 21:14:28 74° ENE 21:20:49 10° SSE
Cosmos 2278 Rocket 3.8 21:11:57 10° NW 21:17:02 35° WSW 21:22:06 10° SSW
YAOGAN 11 4.2 21:13:19 10° SSE 21:17:34 56° ENE 21:21:48 10° N
Cosmos 1606 Rocket 4.0 21:14:01 10° NNW 21:18:24 67° W 21:22:44 10° S
Cosmos 1464 Rocket 4.1 21:12:58 10° N 21:19:03 61° E 21:25:09 10° SSE
Okean 2 3.5 21:19:11 10° S 21:23:21 83° W 21:27:33 10° N
H-2A R/B 2.8 21:19:41 10° SE 21:23:34 35° ENE 21:27:33 10° N
deb Chang Zheng 4 3.8 21:19:57 10° NNE 21:24:11 48° E 21:28:22 10° S
Cosmos 2369 Rocket 4.0 21:24:24 10° NNE 21:28:04 17° NE 21:31:43 10° E
Cosmos 1626 Rocket 3.7 21:26:34 10° S 21:30:53 54° E 21:35:12 10° NNE
Cosmos 1666 2.7 21:29:04 10° N 21:32:57 67° E 21:36:49 10° SSE
Cosmos 2228 3.0 21:29:44 10° N 21:34:09 72° E 21:38:31 10° SSE
SL-16 R/B 4.1 21:30:15 10° SW 21:35:19 34° WNW 21:40:26 10° N
Lacrosse 4 Rocket 2.7 21:32:41 11° SSE 21:35:23 19° ESE 21:38:16 10° ENE
CZ-2C R/B 0.3 21:34:37 14° SSE 21:36:28 67° ENE 21:38:45 10° N
Timation 1 Rocket 4.4 21:30:59 10° NNW 21:37:00 72° ENE 21:42:36 12° SSE
Cosmos 2034 Rocket 4.1 21:33:22 10° N 21:39:42 67° E 21:45:57 10° SSE
SeaSat 1 3.9 21:38:41 12° ESE 21:42:08 23° NE 21:45:58 10° N
GRACE-1 4.3 21:47:16 10° NNE 21:50:02 44° E 21:51:25 23° SSE
GRACE-2 4.3 21:47:42 10° NNE 21:50:29 44° E 21:51:51 24° SSE
Nimbus 7 Rocket 4.4 21:46:26 10° NNE 21:52:22 68° ESE 21:58:12 10° S
YAOGAN 6 4.4 21:54:35 16° E 21:55:39 18° ENE 21:58:13 10° NNE
CZ-4B R/B 4.2 21:52:50 10° NNE 21:57:31 35° E 22:00:41 18° SSE
Atlas Centaur 2 3.0 21:52:18 10° WSW 21:59:15 61° S 22:06:34 13° E
Cosmos 1515 3.9 21:58:34 19° SSE 22:01:07 50° E 22:04:51 10° NNE
Cosmos 1461 3.4 21:58:10 10° NW 22:02:17 54° WSW 22:05:02 18° S
ATLAS 3B R/B 3.0 21:56:43 10° SSW 22:04:16 61° ESE 22:11:43 10° NE
BREEZE-M DEB (TANK) 4.2 21:59:57 10° WSW 22:05:03 37° NW 22:07:19 10° NNE
ISS -0.8 22:02:48 10° W 22:05:32 24° NW 22:08:17 10° NNE
ALOS 4.1 22:02:41 10° SSW 22:06:43 29° W 22:10:46 10° NW
Abrixas rocket 4.0 22:04:45 10° WNW 22:07:36 24° SW 22:09:03 18° S
GEOS 3 Rocket 3.9 22:06:57 19° SSE 22:10:47 66° WSW 22:16:00 10° NW
MetOp-A 4.3 22:13:38 25° SE 22:16:33 55° ENE 22:21:47 10° N
Cosmos 1939 Rocket 3.2 22:14:42 20° S 22:17:31 68° W 22:21:39 10° NNW
CZ-4 R/B 4.5 22:15:04 10° NNE 22:19:43 38° E 22:21:16 30° SE
ERS-1 Rocket 4.0 22:17:23 10° S 22:22:06 41° W 22:26:50 10° NNW
Milstar 3 Cent rocket 3.9 22:16:50 10° WSW 22:22:08 20° SW 22:24:28 16° S
USA 234 4.3 22:19:11 15° E 22:24:00 36° NE 22:29:53 10° NNW
Cosmos 1758 Rocket 4.1 22:23:40 35° ESE 22:24:26 38° E 22:28:29 10° NNE
SPOT 5 2.5 22:23:00 30° SSE 22:25:12 90° E 22:29:33 10° NNW
Cosmos 1943 Rocket 3.8 22:21:29 10° N 22:25:28 20° ENE 22:27:31 16° E
BREEZE M DEB (TANK) 3.3 22:23:54 10° NW 22:25:35 19° NNE 22:25:59 18° NE
Cosmos 1943 3.2 22:20:12 10° SSW 22:25:51 85° WNW 22:31:35 10° NNE
CZ-4 SHROUD 3.6 22:28:44 42° SSW 22:29:33 59° W 22:32:41 10° NNW
Terra 3.6 22:31:28 16° ENE 22:32:12 17° ENE 22:35:12 10° NNE
Envisat 3.3 22:31:25 22° S 22:34:36 63° WSW 22:39:39 10° NNW
Cosmos 1346 Rocket 2.6 22:34:25 51° SSE 22:35:13 69° E 22:39:08 10° NNE
COSMOS 2455 4.2 22:31:51 10° SW 22:37:25 39° WNW 22:43:03 10° N
Cosmos 407 Rocket 3.4 22:34:32 19° S 22:38:22 79° ESE 22:43:37 10° NNE
Cosmos 1825 Rocket 3.7 22:38:25 26° SSW 22:40:55 73° W 22:45:21 10° N
PSLV R/B 4.2 22:41:01 36° SW 22:41:32 39° W 22:44:30 10° NNW
Cosmos 1842 4.4 22:44:54 30° ENE 22:44:54 30° ENE 22:47:38 10° NNE
USA 238 DEB 3.9 22:43:03 26° S 22:46:44 48° ESE 22:53:29 10° NE
USA 238 3.9 22:43:19 27° S 22:46:50 48° ESE 22:53:33 10° NE
Meteor 1-21 4.2 22:47:54 39° SSE 22:50:01 66° E 22:55:47 10° NNE
ARGOS 3.1 22:55:38 48° SSE 22:57:08 75° ENE 23:02:34 10° N
Cosmos 1954 Rocket 3.9 22:57:35 50° SSE 22:58:51 69° ESE 23:04:08 10° NNE
Cosmos 1766 3.4 23:07:14 10° N 23:10:50 70° N 23:10:50 70° N
Nadezhda 4 Rocket 4.3 23:11:18 45° ESE 23:12:00 47° E 23:18:01 10° NNE
Cosmos 2369 Rocket 2.4 23:06:57 10° NNW 23:12:32 61° WSW 23:13:56 46° SSW
Lacrosse 4 Rocket 3.3 23:10:22 10° WSW 23:13:52 28° WNW 23:17:25 10° N
SeaSat 1 3.2 23:18:29 38° SW 23:19:23 42° WSW 23:24:04 10° NW
Cosmos 1741 Rocket 4.5 23:21:13 46° ENE 23:21:13 46° ENE 23:25:34 10° NNE
NOAA 11 4.2 23:20:27 56° SSW 23:21:30 71° WSW 23:26:55 10° NNW
SL-24 R/B 4.5 23:18:59 10° N 23:24:04 89° E 23:24:40 71° S
SL-08 RB Rocket 3.9 23:25:26 62° WSW 23:25:32 62° W 23:30:02 10° NNW
Geosat 4.1 23:25:04 10° NNE 23:30:05 72° WNW 23:31:14 52° SW
Spot 2 4.4 23:25:30 10° NNE 23:30:11 77° ENE 23:30:11 77° ENE
H-2A R/B 1.9 23:36:00 82° NNE 23:36:00 82° NNE 23:40:54 10° N
Cosmos 1850 Rocket 4.0 23:37:40 69° NE 23:37:40 69° NE 23:42:23 10° NNE
Cosmos-2242 3.5 23:34:31 10° N 23:38:15 60° NNW 23:38:15 60° NNW
CZ-4C R/B 4.5 23:41:12 42° WNW 23:41:12 42° WNW 23:44:34 10° NNW
Cosmos 1570 Rocket 4.3 23:37:04 10° N 23:42:07 59° NE 23:42:07 59° NE
CZ-4C R/B 3.7 23:45:27 24° ENE 23:45:27 24° ENE 23:48:00 10° NE
Cosmos 2279 Rocket 4.4 23:38:18 10° NNW 23:44:24 56° W 23:45:52 45° SW
COSMOS 2406 3.3 23:45:47 61° WSW 23:46:38 73° WNW 23:52:23 10° NNE
Cosmos 1607 3.8 23:45:44 62° SW 23:46:53 86° WNW 23:53:10 10° NNE
Cosmos 1140 Rocket 3.7 23:47:56 61° W 23:48:21 63° WNW 23:53:34 10° N
Atlas Centaur 2 3.0 23:41:15 10° W 23:48:53 56° S 23:49:12 56° S
